Location: Madison
(43.0730°N, 89.3819°W)
Time: 08:21:59
(UTC-06:00)

ISS - Pass Details

Date: 26 January 2019
Orbit: 403 x 411 km, 51.6° (Epoch: 16 February)

Event Time Altitude Azimuth Distance (km) Brightness Sun altitude
Rises 18:21:51 0° 257° (WSW) 2,327 2.0 -14.7°
Reaches altitude 10° 18:24:01 10° 265° (W) 1,470 0.4 -15.0°
Maximum altitude 18:27:07 38° 336° (NNW) 644 -2.7 -15.6°
Enters shadow 18:28:32 25° 27° (NNE) 880 -2.5 -15.9°
